Weather History for Taos, NM

Change the Weather History Date:

Thursday, May 16, 2013

  Actual Average Record
Temperature  
Mean Temperature 58 °F -  
Max Temperature 80 °F 70 °F 80 °F (2013)
Min Temperature 37 °F 35 °F 26 °F (1998)
Degree Days  
Heating Degree Days 6    
Growing Degree Days 8 (Base 50)    
Moisture  
Dew Point 24 °F    
Average Humidity 35    
Maximum Humidity 81    
Minimum Humidity 11    
Precipitation  
Precipitation 0.00 in - - ()
Sea Level Pressure  
Sea Level Pressure 30.10 in    
Wind  
Wind Speed 5 mph (WNW)    
Max Wind Speed 20 mph    
Max Gust Speed 30 mph    
Visibility 10 miles    
Events      
Averages and records for this station are not official NWS values.
T = Trace of Precipitation, MM = Missing Value Source: NWS Daily Summary

Daily Weather History Graph

Daily Weather History Graph

Search for Another Location

Airport:

Trip Planner

Search our weather history database for the weather conditions in past years. The results will help you decide how hot, cold, wet, or windy it might be!

Date:

Astronomy

May. 16, 2013 Rise Set
Actual Time 5:54 AM MDT 8:03 PM MDT
Civil Twilight 5:26 AM MDT 8:32 PM MDT
Nautical Twilight 4:50 AM MDT 9:08 PM MDT
Astronomical Twilight 4:12 AM MDT 9:46 PM MDT
Moon 11:27 AM MDT (5/16) 12:28 AM MDT (5/16)
Length of Visible Light 15h 06m
Length of Day
14h 08m
Waxing Crescent, 36% of the Moon is Illuminated
May 16
Waxing Crescent
May 17
First Quarter
May 24
Full
May 31
Last Quarter
Jun 8
New

Hourly Weather History & Observations

Time (MDT) Temp. Windchill Dew Point Humidity Pressure Visibility Wind Dir Wind Speed Gust Speed Precip Events Conditions
12:15 AM 48.2 °F - 35.6 °F 62% 30.15 in 10.0 mi Calm Calm - N/A   Clear
12:35 AM 46.4 °F - 35.6 °F 66% 30.14 in 10.0 mi Calm Calm - N/A   Clear
12:55 AM 44.6 °F - 33.8 °F 66% 30.14 in 10.0 mi Calm Calm - N/A   Clear
1:15 AM 42.8 °F - 30.2 °F 61% 30.14 in 10.0 mi Calm Calm - N/A   Clear
1:35 AM 44.6 °F - 33.8 °F 66% 30.13 in 10.0 mi Calm Calm - N/A   Clear
1:55 AM 39.2 °F 37.0 °F 28.4 °F 65% 30.13 in 10.0 mi NNW 3.5 mph - N/A   Clear
2:15 AM 41.0 °F 39.0 °F 30.2 °F 65% 30.13 in 10.0 mi North 3.5 mph - N/A   Clear
2:35 AM 39.2 °F 37.0 °F 30.2 °F 70% 30.13 in 10.0 mi North 3.5 mph - N/A   Clear
2:55 AM 42.8 °F 40.1 °F 32.0 °F 66% 30.13 in 10.0 mi North 4.6 mph - N/A   Clear
3:15 AM 39.2 °F 35.0 °F 30.2 °F 70% 30.13 in 10.0 mi NNW 5.8 mph - N/A   Clear
3:35 AM 37.4 °F - 30.2 °F 75% 30.12 in 10.0 mi Calm Calm - N/A   Clear
3:55 AM 39.2 °F - 33.8 °F 81% 30.12 in 10.0 mi Calm Calm - N/A   Clear
4:15 AM 41.0 °F - 33.8 °F 76% 30.13 in 10.0 mi Calm Calm - N/A   Clear
4:35 AM 39.2 °F 37.0 °F 30.2 °F 70% 30.13 in 10.0 mi North 3.5 mph - N/A   Clear
4:55 AM 37.4 °F 34.9 °F 28.4 °F 70% 30.13 in 10.0 mi North 3.5 mph - N/A   Clear
5:15 AM 37.4 °F 32.8 °F 28.4 °F 70% 30.13 in 10.0 mi North 5.8 mph - N/A   Clear
5:35 AM 37.4 °F - 28.4 °F 70% 30.13 in 10.0 mi Calm Calm - N/A   Clear
5:55 AM 37.4 °F - 26.6 °F 65% 30.13 in 10.0 mi Calm Calm - N/A   Clear
6:15 AM 37.4 °F - 28.4 °F 70% 30.14 in 10.0 mi Calm Calm - N/A   Clear
6:35 AM 37.4 °F - 28.4 °F 70% 30.14 in 10.0 mi Calm Calm - N/A   Clear
6:55 AM 39.2 °F - 30.2 °F 70% 30.15 in 10.0 mi Calm Calm - N/A   Clear
7:15 AM 42.8 °F - 32.0 °F 66% 30.16 in 10.0 mi Calm Calm - N/A   Clear
7:35 AM 46.4 °F - 33.8 °F 62% 30.17 in 10.0 mi Calm Calm - N/A   Clear
7:55 AM 50.0 °F - 33.8 °F 54% 30.17 in 10.0 mi Calm Calm - N/A   Clear
8:15 AM 51.8 °F - 33.8 °F 50% 30.17 in 10.0 mi Calm Calm - N/A   Clear
8:35 AM 55.4 °F - 33.8 °F 44% 30.17 in 10.0 mi Calm Calm - N/A   Clear
8:55 AM 57.2 °F - 30.2 °F 36% 30.17 in 10.0 mi WSW 4.6 mph - N/A   Clear
9:15 AM 60.8 °F - 26.6 °F 27% 30.16 in 10.0 mi SW 8.1 mph - N/A   Clear
9:35 AM 62.6 °F - 24.8 °F 24% 30.16 in 10.0 mi WSW 8.1 mph - N/A   Clear
9:55 AM 62.6 °F - 23.0 °F 22% 30.16 in 10.0 mi West 5.8 mph - N/A   Clear
10:15 AM 62.6 °F - 23.0 °F 22% 30.15 in 10.0 mi South 3.5 mph - N/A   Clear
10:35 AM 64.4 °F - 26.6 °F 24% 30.15 in 10.0 mi SE 4.6 mph - N/A   Clear
10:55 AM 68.0 °F - 26.6 °F 21% 30.14 in 10.0 mi WSW 9.2 mph - N/A   Clear
11:15 AM 68.0 °F - 24.8 °F 20% 30.13 in 10.0 mi South 9.2 mph 17.3 mph N/A   Clear
11:35 AM 69.8 °F - 24.8 °F 18% 30.12 in 10.0 mi WSW 5.8 mph 17.3 mph N/A   Clear
11:55 AM 71.6 °F - 24.8 °F 17% 30.12 in 10.0 mi West 13.8 mph 21.9 mph N/A   Clear
12:15 PM 73.4 °F - 24.8 °F 16% 30.10 in 10.0 mi West 18.4 mph 24.2 mph N/A   Clear
12:35 PM 73.4 °F - 24.8 °F 16% 30.10 in 10.0 mi West 6.9 mph 23.0 mph N/A   Clear
1:15 PM 75.2 °F - 23.0 °F 14% 30.08 in 10.0 mi WSW 16.1 mph 23.0 mph N/A   Clear
1:35 PM 77.0 °F - 21.2 °F 12% 30.07 in 10.0 mi WNW 13.8 mph 27.6 mph N/A   Clear
1:55 PM 77.0 °F - 21.2 °F 12% 30.07 in - WNW 19.6 mph 29.9 mph N/A   Unknown
2:15 PM 77.0 °F - 21.2 °F 12% 30.06 in 10.0 mi West 16.1 mph 27.6 mph N/A   Clear
2:35 PM 75.2 °F - 21.2 °F 13% 30.06 in 10.0 mi SW 6.9 mph 23.0 mph N/A   Clear
2:55 PM 78.8 °F - 21.2 °F 12% 30.05 in 10.0 mi West 18.4 mph 24.2 mph N/A   Unknown
3:15 PM 78.8 °F - 21.2 °F 12% 30.04 in 10.0 mi NW 15.0 mph 25.3 mph N/A   Clear
3:35 PM 78.8 °F - 21.2 °F 12% 30.04 in 10.0 mi NW 10.4 mph 23.0 mph N/A   Clear
4:15 PM 80.6 °F - 21.2 °F 11% 30.02 in 10.0 mi WNW 15.0 mph 21.9 mph N/A   Clear
4:35 PM 78.8 °F - 19.4 °F 11% 30.01 in 10.0 mi NW 12.7 mph 20.7 mph N/A   Clear
4:55 PM 78.8 °F - 19.4 °F 11% 30.01 in 10.0 mi WNW 12.7 mph - N/A   Clear
5:15 PM 78.8 °F - 19.4 °F 11% 30.01 in 10.0 mi SW 13.8 mph 23.0 mph N/A   Clear
5:35 PM 78.8 °F - 19.4 °F 11% 30.01 in 10.0 mi West 15.0 mph - N/A   Clear
5:55 PM 78.8 °F - 19.4 °F 11% 30.01 in 10.0 mi WNW 12.7 mph 25.3 mph N/A   Clear
6:15 PM 77.0 °F - 17.6 °F 11% 30.00 in 10.0 mi WNW 11.5 mph - N/A   Clear
6:35 PM 77.0 °F - 17.6 °F 11% 30.00 in 10.0 mi West 17.3 mph 24.2 mph N/A   Clear
6:55 PM 75.2 °F - 17.6 °F 11% 30.01 in 10.0 mi NW 13.8 mph 19.6 mph N/A   Clear
7:15 PM 75.2 °F - 17.6 °F 11% 30.01 in 10.0 mi WNW 16.1 mph 20.7 mph N/A   Clear
7:35 PM 71.6 °F - 17.6 °F 13% 30.01 in 10.0 mi West 12.7 mph - N/A   Clear
7:55 PM 69.8 °F - 15.8 °F 13% 30.02 in 10.0 mi West 13.8 mph 17.3 mph N/A   Clear
8:15 PM 68.0 °F - 14.0 °F 12% 30.03 in 10.0 mi West 12.7 mph - N/A   Clear
8:35 PM 62.6 °F - 12.2 °F 14% 30.04 in 10.0 mi West 10.4 mph - N/A   Clear
8:55 PM 62.6 °F - 12.2 °F 14% 30.05 in 10.0 mi West 10.4 mph - N/A   Clear
9:15 PM 59.0 °F - 10.4 °F 15% 30.05 in 10.0 mi WNW 8.1 mph - N/A   Clear
9:35 PM 57.2 °F - 10.4 °F 16% 30.06 in 10.0 mi WNW 8.1 mph - N/A   Clear
9:55 PM 55.4 °F - 10.4 °F 17% 30.07 in 10.0 mi NW 6.9 mph - N/A   Clear
10:15 PM 53.6 °F - 10.4 °F 18% 30.08 in 10.0 mi NW 6.9 mph - N/A   Clear
10:35 PM 53.6 °F - 10.4 °F 18% 30.08 in 10.0 mi North 4.6 mph - N/A   Clear
10:55 PM 53.6 °F - 10.4 °F 18% 30.08 in 10.0 mi East 6.9 mph - N/A   Clear
11:15 PM 51.8 °F - 14.0 °F 22% 30.08 in 10.0 mi ENE 5.8 mph - N/A   Clear
11:35 PM 51.8 °F - 12.2 °F 21% 30.08 in 10.0 mi East 6.9 mph - N/A   Clear
11:55 PM 50.0 °F - 12.2 °F 22% 30.08 in 10.0 mi East 8.1 mph - N/A   Clear